Location: Colonial Hills
(40.5656°N, 77.6119°W)
Time: 03:22:27
(UTC+00:00)

X-37B - Pass Details

Date: 29 November 2020
Orbit: 383 x 391 km, 45.1° (Epoch: 22 January)

Event Time Altitude Azimuth Distance (km) Brightness Sun altitude
Rises 22:13:34 0° 232° (SW) 2,248 6.4 -5.8°
Reaches altitude 10° 22:15:39 10° 227° (SW) 1,399 4.8 -6.2°
Maximum altitude 22:18:43 49° 151° (SSE) 503 1.1 -6.7°
Drops below altitude 10° 22:21:47 10° 75° (ENE) 1,409 2.7 -7.2°
Enters shadow 22:21:54 - 75° (ENE) 1,450 2.8 -7.2°
